Location: Dallas
(32.7833°N, 96.8000°W)
Time: 21:10:01
(UTC-05:00)

X-37B - Visible Passes

Search period start: 21 June 2021 00:00
Search period end: 01 July 2021 00:00
Orbit: 386 x 389 km, 45.0° (Epoch: 10 June)

Date Brightness Start Highest point End Pass type
(mag) Time Alt. Az. Time Alt. Az. Time Alt. Az.
21 Jun 3.7 03:48:31 10° NNW 03:50:33 16° NNE 03:52:35 10° ENE visible
21 Jun 0.6 05:24:22 10° NW 05:27:33 85° NE 05:30:42 10° ESE visible
21 Jun 0.9 21:57:00 10° SSW 22:00:01 41° SE 22:01:06 29° E visible
22 Jun 4.2 02:52:39 11° NNE 02:52:39 11° NNE 02:53:09 10° NE visible
22 Jun 1.9 04:26:07 10° NW 04:29:09 40° NNE 04:32:09 10° ESE visible
22 Jun 2.0 22:35:14 10° WSW 22:38:15 40° NNW 22:41:14 10° NE visible
23 Jun 3.4 03:32:12 16° ENE 03:32:12 16° ENE 03:33:17 10° E visible
23 Jun 0.9 05:04:44 12° WNW 05:07:23 41° SW 05:10:22 10° SSE visible
23 Jun 0.6 21:36:41 10° WSW 21:39:51 84° NW 21:43:02 10° NE visible
23 Jun 3.7 23:14:49 10° WNW 23:16:51 16° NNW 23:18:53 10° NNE visible
24 Jun 3.1 22:15:39 10° W 22:18:16 23° NNW 22:20:54 10° NNE visible
25 Jun 2.1 21:16:46 10° W 21:19:46 39° NNW 21:22:48 10° NE visible
25 Jun 3.9 22:55:48 10° NW 22:57:02 12° NNW 22:58:16 10° N visible
26 Jun 3.7 21:56:22 10° WNW 21:58:23 16° NNW 22:00:24 10° NNE visible
28 Jun 3.8 21:37:21 10° NW 21:38:35 12° NNW 21:39:48 10° N visible
29 Jun 4.0 23:53:04 10° NNW 23:53:42 13° NNW 23:53:42 13° NNW visible
30 Jun 3.5 22:55:12 10° NNW 22:56:31 12° NNE 22:57:35 11° NNE visible
